Regional Weather Roundup
Issued by NWS

Home | Current Version | Previous Version | Graphics & Text | Print | Product List | Glossary Off
Versions: 1 2 3 4 5 6 7 8 9 10 11 12 13 14 15 16 17 18 19 20 21 22 23 24 25 26 27 28 29 30 31 32 33 34 35 36 37 38 39 40 41 42 43 44 45 46 47 48 49 50

000
ASUS43 KTOP 171208
RWRKS

WEATHER ROUNDUP FOR KANSAS
NATIONAL WEATHER SERVICE GOODLAND KS
700 AM CDT TUE OCT 17 2017

NOTE:  "FAIR" INDICATES FEW OR NO CLOUDS BELOW 12,000 FEET WITH NO
SIGNIFICANT WEATHER AND/OR OBSTRUCTIONS TO VISIBILITY.

KSZ001>006-013>018-027>032-041>047-171300-
NORTHWEST KANSAS

CITY           SKY/WX    TMP DP  RH WIND       PRES   REMARKS
GOODLAND       CLOUDY    37  29  72 W9        30.17S
6HR MIN TEMP:  36; 6HR MAX TEMP:  46;

HAYS           CLEAR     40  35  83 SW6       30.12
HILL CITY      CLEAR     40  36  86 W5        30.12R
6HR MIN TEMP:  40; 6HR MAX TEMP:  55;

RUSSELL        CLEAR     43  38  82 S12       30.10F
6HR MIN TEMP:  43; 6HR MAX TEMP:  54;

$$

KSZ061>065-074>080-084>089-171300-
SOUTHWEST KANSAS

CITY           SKY/WX    TMP DP  RH WIND       PRES   REMARKS
DODGE CITY     CLEAR     42  35  76 SW12      30.14S
6HR MIN TEMP:  42; 6HR MAX TEMP:  51;

ELKHART          N/A     41  35  79 NW7         N/A
GARDEN CITY    CLOUDY    37  32  82 SW5       30.13S
6HR MIN TEMP:  36; 6HR MAX TEMP:  44;

GREAT BEND     CLEAR     44  37  76 S8        30.14S
LIBERAL        CLOUDY    35  32  88 SW6       30.16S
PRATT          CLEAR     44  37  76 S13       30.16S
6HR MIN TEMP:  44; 6HR MAX TEMP:  50;

$$

KSZ066>073-081>083-090>101-171300-
SOUTHEAST KANSAS

CITY           SKY/WX    TMP DP  RH WIND       PRES   REMARKS
CHANUTE        CLOUDY    47  40  76 S7        30.24R
6HR MIN TEMP:  44; 6HR MAX TEMP:  48;

COFFEYVILLE    PTCLDY    44  41  89 S5        30.25S
6HR MIN TEMP:  43; 6HR MAX TEMP:  46;

HUTCHINSON     CLEAR     48  41  76 S9        30.16S
6HR MIN TEMP:  47; 6HR MAX TEMP:  53;

MEDICINE LODGE   N/A     45  38  76 SE8       30.18S
NEWTON         CLEAR     49  40  71 S14       30.18S
PARSONS        CLOUDY    48  41  76 S5        30.25F
6HR MIN TEMP:  42; 6HR MAX TEMP:  49;

WICHITA INTL   PTCLDY    48  42  80 S13       30.18F
6HR MIN TEMP:  46; 6HR MAX TEMP:  49;

WICHITA JABRA  CLEAR     47  41  80 S10       30.18F
6HR MIN TEMP:  46; 6HR MAX TEMP:  51;

WICHITA MCCONL CLEAR     48  40  72 S12       30.19F
WINFIELD       CLEAR     46  42  86 S7        30.24R
6HR MIN TEMP:  46; 6HR MAX TEMP:  50;

$$

KSZ007>012-019>026-033>040-048>060-102>105-171300-
NORTHEAST KANSAS

CITY           SKY/WX    TMP DP  RH WIND       PRES   REMARKS
CONCORDIA      CLEAR     48  40  73 SW5       30.12R
6HR MIN TEMP:  48; 6HR MAX TEMP:  54;

EMPORIA        CLEAR     47  38  71 S9        30.20R
6HR MIN TEMP:  43; 6HR MAX TEMP:  50;

LAWRENCE       PTCLDY    47  41  80 E8        30.21R
6HR MIN TEMP:  44; 6HR MAX TEMP:  53;

MANHATTAN      CLEAR     47  40  76 CALM      30.15F
6HR MIN TEMP:  46; 6HR MAX TEMP:  56;

MARYSVILLE     CLEAR     50  41  71 S7        30.14R
OLATHE IND     CLOUDY    47  41  80 SE7       30.23R
6HR MIN TEMP:  45; 6HR MAX TEMP:  49;

OLATHE EXE     PTCLDY    46  40  79 S7        30.22S
6HR MIN TEMP:  45; 6HR MAX TEMP:  50;

SALINA         CLEAR     49  42  77 S6        30.14R
6HR MIN TEMP:  49; 6HR MAX TEMP:  56;

TOPEKA BILLARD CLEAR     48  40  73 SE3       30.19S
6HR MIN TEMP:  48; 6HR MAX TEMP:  55;

TOPEKA FORBES  CLEAR     51  41  68 S10       30.18R
6HR MIN TEMP:  50; 6HR MAX TEMP:  54;

$$



USA.gov is the U.S. government's official web portal to all federal, state and local government web resources and services.